Vertical_Velocity
-2 -1 -2 -2 -2 -3 -1 -2 0 -2 -1 0 -4 -4 -1 -0 -3 -2 -1 1 -4 -0 2 5 8 1 1 -0 10 1 0 -4 -1 6 1 4 0 2 -2 6 6 0 -1 6 3 0 2
-1 -2 -1 -1 -1 -3 -0 -3 0 -1 -1 -1 -2 -1 -2 -0 -0 -4 -3 -8 -5 1 -1 3 9 6 8 6 3 1 2 -1 -0 3 -0 -0 1 1 -2 2 7 -1 -3 3 5 2 1
-1 -2 -1 -2 0 -3 0 -2 -2 -1 -5 -3 -4 -4 -3 -4 1 -2 -4 -4 -3 0 -3 -0 -1 1 4 3 1 1 -2 0 -2 3 6 8 7 -4 6 7 7 1 -3 0 2 1 -1
-2 -1 -1 -1 -1 -4 -0 -2 -3 -0 -1 -0 1 1 -0 -2 1 0 -1 0 -7 -1 -3 -0 4 3 3 5 -2 1 -1 -0 -1 11 7 7 1 6 -2 4 3 3 4 2 1 2 1
-1 -1 -0 -1 -3 -4 -1 -2 -3 2 1 2 1 -5 -5 -1 -1 1 0 -1 0 -5 -1 -1 0 -3 1 1 -0 0 0 -0 2 2 -16 18 3 3 2 -2 2 4 -2 -3 1 0 -0
-2 -1 -0 -1 -2 -4 -1 -2 1 -2 -1 6 -2 -3 3 -0 -2 1 1 -0 1 2 -2 0 3 1 2 -7 -0 3 0 -0 -5 -6 7 4 2 0 1 -3 -12 -2 5 5 -1 -3 -2
-3 -0 -0 -2 -2 -3 0 -1 -1 -4 2 -1 3 -4 -5 -3 3 -1 2 1 -1 -1 -2 -5 -2 9 2 -1 1 3 4 -2 -7 0 -5 7 -6 -12 -3 -3 -2 2 -0 -3 -5 -3 -0
-1 0 -0 -2 -1 -1 -1 -1 -3 2 -1 0 -4 -1 1 -1 -6 -1 -1 -1 -6 2 2 2 3 4 -2 -4 -0 -3 -0 1 6 1 5 0 -3 -2 5 -0 3 11 -1 2 1 1 5
-1 0 -0 -1 0 -2 -1 0 -2 2 -1 0 -4 -0 6 -0 2 -1 -0 -1 1 -3 -1 10 4 2 -3 1 -0 1 1 -1 2 3 -2 -1 -2 0 1 -0 5 3 -6 -5 -3 -0 1
-1 -1 -0 -1 1 -2 -1 2 -2 0 -1 1 0 -2 -2 -1 -1 -0 -0 -1 -5 -2 -5 3 -2 8 2 2 -1 8 -2 1 9 -1 8 6 2 4 -5 1 5 -2 -4 3 -2 -0 -3
-1 -1 1 -3 1 -1 0 -1 -1 1 -1 0 -0 1 -0 -3 1 -1 2 1 1 0 -7 -0 8 6 8 -0 7 11 5 -3 -1 5 8 6 1 -5 -0 1 5 -8 -1 3 3 -1 -1
-1 -2 0 -1 -0 1 -1 -0 -0 -2 -2 2 0 -2 -0 -3 -2 -2 -4 -2 3 -6 -2 -1 9 6 -6 6 7 2 6 2 -7 4 15 -6 8 2 1 1 4 2 1 0 1 1 -2
-1 -2 -0 -0 -0 2 -2 -0 -1 -1 0 1 1 -0 -1 -0 1 -1 -2 0 -7 -10 1 3 7 -3 6 -0 1 6 2 0 -8 5 6 3 1 -2 0 3 5 2 1 -2 -6 -3 -7
-0 -2 -3 -0 -0 0 -0 -0 -0 -0 -1 -0 2 1 2 3 0 1 1 1 -19 5 3 2 0 2 -6 -17 -1 -5 6 -11 4 4 -2 -4 5 4 -2 -1 -4 2 -0 -4 -6 -3 -4
-1 -2 -3 -1 -1 1 1 -1 -2 -1 -0 -0 1 1 0 0 2 4 1 -9 -3 -1 -4 -3 -4 6 5 -0 -1 4 7 -2 1 -2 1 -4 2 -0 4 1 -3 -1 1 -1 -3 1 -1
-1 -1 -2 -2 -2 1 1 1 -0 -2 -0 1 1 3 0 -0 1 2 4 -10 -3 -3 -4 -5 -3 -1 -4 4 -5 1 1 3 2 2 3 1 -7 2 2 2 -1 -2 -1 -1 -0 -5 -0
0 -1 0 -2 -3 -1 -0 2 -0 0 -2 -1 1 1 1 1 3 1 -10 -2 3 2 2 -1 -4 -5 -3 -10 -4 2 -3 -3 11 2 -6 -1 -2 -4 1 2 1 -3 -1 -0 -1 0 -5
2 -1 0 0 -2 -3 -2 1 2 1 -1 -1 0 -1 0 3 4 -1 -1 -6 -4 1 3 3 0 -1 0 1 1 -1 -6 5 -5 -8 3 -6 -3 -0 -2 -0 2 1 -3 -2 -1 -1 -1
0 1 0 -0 0 -1 -2 0 1 2 -1 -1 -1 0 -1 0 2 -0 -2 -1 -2 -0 -2 0 0 1 1 0 0 0 -0 -2 -3 -1 -2 -3 1 -4 0 -1 -1 -1 -2 -3 -0 -1 -1
-0 1 1 -1 -1 0 -1 -0 -2 0 1 -0 -0 0 -2 -1 1 1 -1 -1 -1 -1 -2 -3 -2 2 1 0 1 -1 1 1 -0 0 -1 2 -1 -1 -9 -2 -1 -5 -4 -0 -0 -0 -1
-1 0 0 1 -1 -1 2 -2 -1 -1 0 -1 -0 -0 0 0 -2 -1 0 -1 0 -2 -1 -1 -3 -3 -3 1 -0 1 1 0 2 1 1 -0 -0 0 0 1 1 0 0 -0 -3 0 -1
-0 1 0 -1 -0 1 1 -1 -2 -0 -1 -1 -1 -0 -1 0 1 1 -0 1 0 1 2 -2 -2 -0 -2 -2 1 -1 -0 -2 -1 -0 -1 1 -1 -1 -1 -1 -1 -1 -1 0 -0 1 0
-1 1 1 0 -0 0 -0 -1 0 0 -0 -1 -1 -0 -1 1 -1 -1 -0 1 1 1 -1 -2 -0 -1 -1 -1 -1 -1 0 -0 1 0 -1 -2 -1 -1 0 0 1 -3 -1 -1 1 2 6
-1 -0 1 0 0 -1 1 -1 -1 1 1 -1 0 -1 -1 0 -0 -1 0 0 1 1 1 2 0 -0 0 -0 0 -1 0 0 -2 -1 -0 1 1 1 -0 -1 -5 -2 -2 -1 -0 0 -0
-1 -1 -0 0 1 0 -0 -0 -2 0 1 0 -0 -0 -2 -1 1 -1 1 1 -0 0 1 2 2 0 0 -1 -0 -0 -1 0 1 0 0 -0 -0 -1 -1 -3 -3 0 -2 -2 -0 1 -2
-0 0 -0 0 0 1 1 -1 -1 -1 -1 1 1 -0 -0 -3 -2 0 -0 1 0 0 1 -0 1 1 0 0 1 0 0 0 -0 -0 1 -0 -1 -0 -2 -1 -2 -2 -2 -1 -1 -6 -1
0 0 0 1 0 0 -1 -0 -0 -1 -1 -2 0 0 0 0 -2 -2 -1 -1 -0 1 0 1 1 1 2 1 -0 -1 -0 -1 -1 -1 -1 1 0 -1 1 -1 -2 -0 0 0 0 0 2
-0 -0 -1 1 3 0 1 -1 -1 -0 0 -1 -1 -0 0 1 -1 -2 -1 0 -1 -0 1 -1 -1 -0 0 -0 0 -0 -0 -0 -1 -1 -2 -2 -2 -2 0 -2 -4 -1 0 -1 -0 1 0
0 -1 0 -1 2 0 1 1 -1 -1 -1 1 -2 -0 -1 -1 0 0 -1 -1 1 -1 -1 1 0 -1 -1 -0 -1 -1 -0 0 1 -1 -0 -4 -4 -4 -6 -4 -3 -1 -1 -2 -1 -2 -0
Height
3115 3112 3107 3102 3097 3092 3086 3079 3076 3070 3065 3060 3056 3051 3047 3043 3040 3035 3028 3021 3019 3017 3017 3020 3023 3026 3029 3032 3037 3042 3050 3058 3065 3069 3075 3081 3084 3091 3097 3104 3110 3114 3121 3125 3129 3133 3136
3114 3111 3106 3101 3096 3091 3084 3078 3075 3070 3064 3059 3055 3051 3047 3044 3041 3036 3030 3024 3019 3019 3020 3021 3023 3025 3029 3034 3037 3042 3049 3056 3060 3067 3074 3079 3085 3093 3100 3105 3109 3112 3119 3124 3128 3132 3135
3113 3110 3106 3101 3095 3091 3084 3077 3074 3069 3065 3059 3055 3052 3049 3045 3041 3038 3033 3027 3022 3021 3022 3023 3026 3028 3031 3035 3037 3044 3049 3053 3059 3063 3073 3081 3086 3091 3097 3103 3106 3112 3119 3123 3127 3130 3134
3113 3109 3105 3100 3095 3091 3083 3077 3073 3069 3065 3060 3056 3053 3049 3044 3042 3039 3034 3030 3026 3025 3025 3025 3027 3029 3032 3035 3039 3044 3049 3053 3060 3064 3071 3081 3085 3089 3093 3100 3105 3111 3116 3121 3125 3128 3133
3112 3109 3105 3100 3095 3090 3084 3079 3073 3068 3065 3061 3056 3053 3049 3045 3043 3039 3035 3031 3028 3028 3027 3028 3030 3032 3034 3035 3041 3045 3050 3055 3060 3065 3071 3078 3083 3088 3092 3098 3104 3108 3110 3116 3123 3127 3132
3111 3108 3104 3100 3095 3090 3084 3080 3074 3068 3066 3062 3057 3054 3050 3046 3042 3040 3038 3035 3031 3028 3030 3030 3032 3037 3035 3038 3041 3045 3049 3055 3060 3066 3072 3078 3081 3085 3091 3095 3099 3104 3108 3115 3120 3127 3130
3111 3108 3104 3100 3095 3090 3085 3081 3074 3069 3065 3062 3059 3056 3052 3049 3045 3042 3041 3039 3036 3032 3031 3033 3034 3033 3035 3037 3041 3046 3049 3055 3061 3067 3070 3076 3081 3083 3090 3096 3103 3109 3111 3115 3121 3126 3130
3110 3107 3104 3100 3095 3090 3086 3082 3075 3070 3065 3062 3059 3056 3055 3053 3049 3046 3044 3042 3037 3035 3034 3035 3035 3036 3036 3038 3041 3046 3050 3054 3058 3066 3073 3078 3081 3088 3094 3099 3103 3109 3110 3114 3119 3124 3128
3109 3106 3103 3100 3096 3091 3087 3082 3077 3071 3066 3062 3059 3056 3054 3052 3050 3047 3045 3043 3040 3039 3038 3039 3039 3038 3040 3042 3043 3045 3049 3053 3059 3066 3072 3078 3083 3088 3093 3097 3102 3106 3109 3113 3118 3123 3127
3109 3105 3103 3100 3096 3092 3087 3083 3078 3072 3067 3062 3058 3056 3054 3052 3051 3048 3046 3044 3042 3041 3042 3045 3043 3042 3042 3044 3047 3049 3050 3054 3060 3067 3076 3082 3085 3089 3094 3098 3101 3104 3109 3114 3118 3122 3126
3108 3105 3102 3099 3096 3092 3088 3084 3079 3073 3069 3064 3060 3056 3053 3052 3050 3048 3048 3045 3044 3043 3046 3050 3046 3046 3046 3047 3050 3051 3055 3059 3062 3068 3077 3079 3084 3090 3094 3098 3100 3104 3110 3114 3117 3121 3124
3108 3105 3102 3099 3095 3093 3089 3084 3080 3075 3071 3066 3062 3058 3054 3052 3051 3049 3047 3046 3046 3049 3052 3054 3051 3052 3051 3053 3054 3056 3060 3065 3069 3073 3076 3080 3083 3090 3095 3098 3101 3105 3109 3113 3118 3121 3124
3107 3104 3101 3098 3095 3093 3089 3085 3081 3077 3072 3068 3064 3059 3056 3053 3051 3049 3047 3047 3050 3053 3060 3062 3057 3056 3057 3058 3060 3064 3066 3068 3069 3074 3077 3082 3087 3091 3095 3099 3102 3104 3107 3114 3124 3125 3124
3107 3104 3101 3098 3095 3092 3089 3086 3082 3078 3075 3070 3067 3062 3057 3054 3052 3050 3051 3051 3052 3061 3061 3063 3062 3063 3064 3064 3067 3069 3071 3073 3076 3079 3080 3084 3092 3092 3096 3099 3101 3103 3105 3106 3120 3123 3119
3106 3103 3101 3098 3095 3092 3089 3086 3083 3079 3077 3073 3069 3066 3062 3058 3055 3054 3054 3052 3060 3063 3066 3065 3066 3069 3069 3071 3072 3073 3076 3078 3080 3082 3083 3086 3089 3092 3094 3098 3102 3104 3105 3108 3109 3113 3115
3105 3103 3100 3097 3095 3092 3089 3086 3084 3081 3078 3075 3072 3069 3065 3062 3060 3059 3057 3056 3062 3065 3067 3067 3068 3070 3072 3073 3075 3075 3077 3079 3081 3084 3084 3085 3089 3092 3096 3099 3102 3103 3106 3108 3107 3115 3117
3103 3102 3100 3097 3094 3092 3089 3086 3084 3082 3079 3076 3074 3071 3068 3066 3065 3064 3061 3062 3065 3067 3068 3070 3069 3071 3074 3074 3075 3077 3079 3080 3081 3083 3085 3086 3088 3095 3096 3097 3100 3103 3103 3105 3107 3108 3110
3100 3099 3098 3096 3094 3092 3089 3086 3083 3082 3080 3079 3076 3074 3071 3069 3070 3066 3066 3066 3067 3068 3068 3069 3071 3072 3074 3075 3076 3076 3077 3079 3082 3083 3085 3087 3090 3092 3095 3096 3098 3100 3102 3103 3105 3107 3107
3098 3097 3096 3095 3093 3092 3089 3086 3083 3082 3080 3079 3077 3075 3074 3072 3070 3069 3069 3069 3070 3070 3070 3070 3071 3073 3075 3075 3076 3076 3078 3080 3082 3085 3086 3088 3089 3093 3097 3099 3097 3098 3100 3102 3104 3104 3105
3094 3095 3094 3094 3092 3091 3089 3087 3084 3082 3080 3080 3078 3077 3075 3073 3072 3071 3071 3071 3071 3071 3072 3072 3072 3073 3074 3074 3075 3076 3078 3081 3083 3085 3086 3087 3088 3089 3090 3089 3092 3094 3098 3100 3102 3103 3103
3091 3092 3092 3091 3091 3090 3088 3086 3084 3082 3080 3080 3078 3076 3076 3075 3074 3073 3073 3072 3071 3071 3072 3073 3074 3074 3074 3074 3075 3076 3078 3080 3082 3084 3085 3087 3087 3088 3089 3089 3090 3092 3094 3096 3096 3099 3100
3087 3088 3089 3089 3088 3088 3088 3086 3084 3082 3081 3080 3079 3077 3076 3075 3074 3074 3074 3073 3073 3072 3073 3073 3073 3074 3075 3075 3076 3076 3077 3079 3081 3083 3084 3085 3087 3087 3088 3089 3090 3090 3091 3091 3092 3094 3095
3082 3084 3085 3086 3086 3085 3086 3086 3084 3082 3081 3080 3079 3077 3077 3076 3075 3074 3074 3074 3074 3073 3073 3073 3074 3074 3075 3076 3076 3077 3078 3079 3080 3082 3083 3085 3086 3087 3087 3087 3087 3087 3084 3085 3086 3088 3091
3077 3079 3081 3082 3083 3083 3083 3084 3083 3082 3081 3080 3079 3078 3077 3076 3075 3075 3074 3074 3073 3073 3073 3073 3073 3074 3076 3075 3076 3077 3077 3078 3079 3080 3081 3083 3084 3085 3084 3085 3088 3080 3080 3080 3081 3082 3085
3072 3074 3077 3078 3080 3080 3080 3081 3081 3081 3080 3079 3078 3078 3077 3076 3076 3075 3074 3073 3073 3073 3073 3073 3073 3074 3073 3074 3075 3075 3076 3077 3077 3077 3079 3080 3081 3082 3083 3082 3079 3076 3076 3077 3076 3078 3079
3066 3069 3071 3074 3075 3076 3076 3077 3078 3079 3078 3078 3077 3077 3076 3077 3076 3075 3074 3073 3073 3073 3073 3073 3073 3072 3073 3073 3073 3073 3074 3075 3075 3075 3075 3077 3079 3082 3081 3080 3077 3075 3074 3074 3076 3075 3076
3059 3063 3065 3068 3070 3072 3073 3073 3074 3075 3076 3076 3075 3075 3075 3075 3074 3074 3073 3073 3073 3073 3073 3072 3072 3072 3072 3072 3072 3072 3073 3073 3073 3072 3073 3074 3075 3077 3078 3078 3073 3072 3072 3073 3076 3078 3074
3052 3056 3059 3061 3064 3067 3068 3068 3070 3071 3072 3073 3074 3073 3074 3073 3072 3072 3072 3072 3072 3071 3072 3072 3073 3071 3071 3071 3072 3071 3071 3072 3071 3071 3071 3072 3073 3073 3076 3076 3073 3070 3071 3073 3073 3073 3074
3044 3049 3052 3055 3058 3060 3063 3064 3064 3066 3067 3069 3070 3071 3070 3071 3072 3070 3069 3069 3069 3069 3070 3070 3071 3071 3071 3071 3071 3071 3070 3070 3070 3069 3069 3071 3071 3071 3073 3070 3069 3069 3069 3070 3070 3071 3071